Temp_Advection
nan nan nan nan nan nan nan nan nan nan nan nan nan nan nan nan nan nan nan nan nan nan
nan 0 -0 -0 0 0 0 0 0 0 0 0 0 0 0 0 0 0 0 0 0 nan
nan -0 -0 0 0 0 0 0 0 0 0 0 0 0 0 1 0 -0 0 0 0 nan
nan -0 -0 0 0 0 0 0 0 0 0 1 0 0 0 0 0 0 0 0 0 nan
nan -0 0 0 0 0 0 0 0 1 1 0 0 0 0 -0 0 0 0 0 0 nan
nan 0 0 0 1 1 0 1 1 0 0 0 0 0 0 0 0 0 0 0 1 nan
nan 0 0 1 1 1 0 0 0 1 1 0 0 0 0 0 0 0 0 1 1 nan
nan 1 1 1 1 0 0 0 1 1 0 0 0 0 0 0 0 0 0 0 0 nan
nan 1 1 1 1 0 0 0 1 1 0 0 0 0 0 0 0 0 0 1 0 nan
nan 1 1 1 1 0 0 1 0 0 0 0 -0 0 1 1 1 0 1 1 -0 nan
nan 1 0 0 0 -0 -0 -0 -0 0 1 1 0 0 1 1 1 0 0 0 0 nan
nan 0 0 0 0 -0 -0 0 1 1 0 0 0 -0 0 1 0 -0 -0 0 0 nan
nan 0 0 0 -0 0 1 1 0 0 0 0 1 1 0 -0 -0 -0 0 0 0 nan
nan nan nan nan nan nan nan nan nan nan nan nan nan nan nan nan nan nan nan nan nan nan
Wind_Speed
17 14 11 10 10 9 8 6 6 6 5 7 7 7 7 7 7 7 7 6 8 10
18 17 15 11 10 8 8 9 8 8 9 9 10 9 9 9 9 10 10 10 10 12
21 17 14 13 13 12 12 13 13 13 14 15 15 14 13 12 11 11 12 13 14 14
22 19 17 16 16 17 16 15 16 17 17 17 17 15 15 15 15 15 14 13 16 17
22 20 19 19 18 18 19 20 19 17 16 15 15 16 17 18 18 18 19 18 16 17
24 21 20 20 20 20 20 20 17 15 14 15 17 18 19 20 19 20 21 22 22 21
26 24 21 21 21 20 18 18 21 22 22 22 22 21 23 24 23 22 23 24 22 21
28 27 25 23 20 19 17 17 20 19 20 21 23 23 23 23 23 22 24 22 23 22
31 28 24 21 19 19 16 17 21 19 22 21 22 25 23 23 22 21 24 22 22 24
25 20 16 15 14 13 14 18 17 15 20 25 24 25 21 20 20 19 21 21 22 24
16 11 8 5 3 9 13 16 20 24 24 23 21 22 21 18 17 18 20 20 19 18
10 5 6 19 20 26 24 23 23 22 20 18 16 18 17 13 10 11 14 15 15 15
12 22 17 19 21 21 25 23 18 16 14 15 14 12 10 8 7 10 13 14 14 14
14 16 14 17 19 19 17 14 12 13 12 12 12 9 6 7 8 9 11 12 11 11
Wind_Direction
201 211 212 202 212 216 218 212 227 221 228 270 278 263 286 305 314 305 299 290 285 281
207 217 215 218 224 219 226 231 240 252 262 278 279 273 281 284 284 284 281 278 282 277
210 214 225 227 232 240 242 242 248 256 265 270 270 264 263 270 278 283 285 283 282 283
208 216 223 233 238 245 243 236 246 253 255 253 261 263 265 278 283 286 287 286 284 286
217 221 226 237 240 236 244 256 262 258 250 260 268 268 270 279 281 287 289 290 274 275
217 221 229 239 241 241 248 257 257 249 249 251 254 256 263 270 270 269 274 276 273 268
219 225 229 227 227 236 244 243 246 245 247 248 250 256 263 268 269 263 273 276 277 274
217 223 222 225 227 228 233 249 258 262 256 258 263 263 265 269 275 277 275 275 277 280
210 212 216 223 225 222 230 250 263 270 262 268 272 270 270 273 272 270 278 275 282 284
198 202 207 210 213 237 255 251 260 279 281 273 273 275 275 270 269 269 270 270 275 276
191 189 194 214 293 305 288 279 289 281 276 278 280 281 280 275 270 269 269 272 272 271
147 149 267 298 272 257 265 272 276 275 277 282 283 285 287 280 276 273 270 266 265 269
285 307 290 241 261 267 271 271 271 276 285 287 291 291 289 289 264 265 267 266 263 264
252 218 231 261 260 258 258 263 271 277 279 286 297 293 262 259 265 268 262 262 260 264
Height
1518 1520 1522 1523 1524 1526 1528 1529 1531 1532 1533 1535 1534 1533 1535 1535 1534 1533 1533 1534 1535 1534
1515 1517 1519 1521 1522 1524 1526 1527 1528 1529 1530 1531 1532 1532 1531 1532 1531 1530 1529 1529 1530 1531
1511 1514 1517 1518 1519 1520 1523 1524 1525 1525 1526 1527 1528 1528 1527 1527 1527 1527 1527 1527 1526 1527
1508 1510 1513 1516 1517 1517 1519 1519 1521 1522 1523 1523 1524 1524 1525 1525 1524 1523 1522 1521 1522 1523
1507 1509 1510 1512 1514 1514 1516 1516 1516 1518 1518 1519 1520 1521 1521 1521 1522 1520 1520 1520 1519 1518
1504 1505 1505 1508 1511 1513 1513 1513 1513 1514 1515 1515 1516 1517 1517 1516 1516 1516 1516 1515 1514 1513
1499 1501 1501 1503 1506 1508 1510 1511 1510 1511 1511 1510 1510 1511 1512 1512 1511 1510 1512 1511 1510 1510
1494 1495 1496 1497 1498 1500 1503 1506 1509 1509 1510 1507 1507 1507 1507 1507 1506 1508 1507 1506 1505 1504
1487 1488 1489 1493 1496 1497 1497 1500 1502 1503 1506 1506 1504 1504 1503 1502 1502 1501 1502 1503 1502 1501
1483 1486 1488 1491 1495 1498 1496 1496 1498 1498 1500 1501 1499 1497 1498 1496 1496 1498 1497 1497 1498 1497
1480 1484 1489 1492 1491 1496 1494 1496 1494 1495 1493 1495 1495 1492 1492 1490 1490 1491 1491 1492 1493 1493
1478 1483 1488 1488 1488 1491 1492 1491 1490 1490 1489 1489 1489 1487 1487 1486 1486 1486 1488 1488 1488 1488
1473 1478 1480 1480 1483 1487 1489 1487 1486 1486 1485 1485 1486 1484 1483 1484 1483 1483 1484 1484 1484 1484
1468 1471 1476 1479 1479 1481 1484 1482 1481 1481 1480 1480 1481 1480 1481 1482 1482 1482 1482 1482 1482 1481